Fairmont, MN

7:01 AM CST on December 06, 2016 (GMT -0600)
Fairmont Municipal

Weather History for KFRM - February, 2013

Change the Weather History Date:

Wednesday, February 20, 2013

  Actual Average Record
Temperature  
Mean Temperature 7 °F -  
Max Temperature 19 °F 31 °F 62 °F (1981)
Min Temperature -5 °F 14 °F -18 °F (2008)
Degree Days  
Heating Degree Days 58    
Moisture  
Dew Point -2 °F    
Average Humidity 65    
Maximum Humidity 84    
Minimum Humidity 49    
Precipitation  
Precipitation 0.00 in - - ()
Sea Level Pressure  
Sea Level Pressure 30.38 in    
Wind  
Wind Speed - (North)    
Max Wind Speed -    
Max Gust Speed -    
Visibility 10 miles    
Events      
Averages and records for this station are not official NWS values.
T = Trace of Precipitation, MM = Missing Value Source: NWS Daily Summary

Daily Weather History Graph

Daily Weather History Graph

Search for Another Location

Airport or City:

Trip Planner

Search our weather history database for the weather conditions in past years. The results will help you decide how hot, cold, wet, or windy it might be!

Date:

Astronomy

Feb. 20, 2013 Rise Set
Actual Time 7:08 AM CST 5:55 PM CST
Civil Twilight 6:39 AM CST 6:24 PM CST
Nautical Twilight 6:05 AM CST 6:57 PM CST
Astronomical Twilight 5:32 AM CST 7:30 PM CST
Moon 1:11 PM CST (2/20) 3:34 AM CST (2/20)
Length of Visible Light 11h 45m
Length of Day
10h 46m
Waxing Gibbous, 76% of the Moon is Illuminated
Feb 20
Waxing Gibbous
Feb 25
Full
Mar 4
Last Quarter
Mar 11
New
Mar 19
First Quarter

Hourly Weather History & Observations

Time (CST) Temp. Dew Point Humidity Pressure Visibility Wind Dir Wind Speed Gust Speed Precip Events Conditions
12:15 AM -2.2 °F -9.4 °F 71% 30.39 in 10.0 mi North - - N/A   Clear
12:35 AM -2.2 °F -9.4 °F 71% 30.39 in 10.0 mi North - - N/A   Clear
12:55 AM -2.2 °F -9.4 °F 71% 30.39 in 10.0 mi North - - N/A   Clear
1:15 AM -2.2 °F -9.4 °F 71% 30.39 in 10.0 mi North - - N/A   Clear
1:35 AM -2.2 °F -9.4 °F 71% 30.39 in 10.0 mi North - - N/A   Clear
1:55 AM -2.2 °F -9.4 °F 71% 30.39 in 10.0 mi North - - N/A   Clear
2:15 AM -2.2 °F -9.4 °F 71% 30.40 in 10.0 mi North - - N/A   Clear
2:35 AM -2.2 °F -9.4 °F 71% 30.40 in 10.0 mi North - - N/A   Clear
2:55 AM -2.2 °F -9.4 °F 71% 30.40 in 10.0 mi North - - N/A   Clear
3:15 AM -2.2 °F -9.4 °F 71% 30.40 in 10.0 mi North - - N/A   Clear
3:35 AM -2.2 °F -11.2 °F 66% 30.40 in 10.0 mi North - - N/A   Clear
3:55 AM -2.2 °F -9.4 °F 71% 30.40 in 10.0 mi North - - N/A   Clear
4:15 AM -4.0 °F -9.4 °F 78% 30.40 in 10.0 mi North - - N/A   Clear
4:35 AM -4.0 °F -11.2 °F 71% 30.40 in 10.0 mi North - - N/A   Clear
4:55 AM -4.0 °F -9.4 °F 78% 30.41 in 10.0 mi North - - N/A   Clear
5:15 AM -4.0 °F -9.4 °F 78% 30.41 in 10.0 mi North - - N/A   Clear
5:35 AM -4.0 °F -11.2 °F 71% 30.40 in 10.0 mi North - - N/A   Clear
6:15 AM -5.8 °F -11.2 °F 77% 30.39 in 10.0 mi North - - N/A   Clear
6:35 AM -5.8 °F -11.2 °F 77% 30.39 in 10.0 mi North - - N/A   Clear
6:55 AM -5.8 °F -11.2 °F 77% 30.39 in 10.0 mi North - - N/A   Clear
7:15 AM -5.8 °F -9.4 °F 84% 30.39 in 10.0 mi North - - N/A   Clear
7:35 AM -4.0 °F -9.4 °F 78% 30.40 in 10.0 mi North - - N/A   Clear
7:55 AM -4.0 °F - N/A% 30.40 in 10.0 mi North - - N/A   Clear
8:15 AM -2.2 °F -9.4 °F 71% 30.40 in 10.0 mi North - - N/A   Clear
8:35 AM -2.2 °F -9.4 °F 71% 30.41 in 10.0 mi North - - N/A   Clear
8:55 AM -0.4 °F -7.6 °F 72% 30.41 in 10.0 mi North - - N/A   Clear
9:15 AM -0.4 °F -7.6 °F 72% 30.43 in 10.0 mi North - - N/A   Clear
9:35 AM 3.2 °F -5.8 °F 66% 30.43 in 10.0 mi North - - N/A   Clear
9:55 AM 3.2 °F -7.6 °F 61% 30.44 in 10.0 mi North - - N/A   Clear
10:15 AM 5.0 °F -5.8 °F 61% 30.43 in 10.0 mi North - - N/A   Clear
10:35 AM 5.0 °F -5.8 °F 61% 30.43 in 10.0 mi North - - N/A   Clear
10:55 AM 8.6 °F -2.2 °F 62% 30.43 in 10.0 mi North - - N/A   Clear
11:15 AM 8.6 °F -2.2 °F 62% 30.42 in 10.0 mi North - - N/A   Clear
11:35 AM 8.6 °F -4.0 °F 57% 30.42 in 10.0 mi North - - N/A   Clear
11:55 AM 10.4 °F -0.4 °F 62% 30.41 in 10.0 mi North - - N/A   Clear
12:15 PM 12.2 °F -2.2 °F 53% 30.43 in 10.0 mi North - - N/A   Clear
12:35 PM 12.2 °F -0.4 °F 57% 30.43 in 10.0 mi North - - N/A   Clear
12:55 PM 12.2 °F -2.2 °F 53% 30.43 in 10.0 mi North - - N/A   Clear
1:15 PM 14.0 °F 1.4 °F 57% 30.42 in 10.0 mi North - - N/A   Clear
1:35 PM 15.8 °F 3.2 °F 58% 30.41 in 10.0 mi North - - N/A   Clear
2:55 PM 19.4 °F 3.2 °F 49% 30.37 in 10.0 mi North - - N/A   Clear
3:15 PM 19.4 °F 3.2 °F 49% 30.36 in 10.0 mi North - - N/A   Clear
3:35 PM 19.4 °F 3.2 °F 49% 30.36 in 10.0 mi North - - N/A   Clear
3:55 PM 19.4 °F 5.0 °F 54% 30.34 in 10.0 mi North - - N/A   Clear
4:15 PM 19.4 °F 5.0 °F 54% 30.35 in 10.0 mi North - - N/A   Clear
4:35 PM 19.4 °F 5.0 °F 54% 30.36 in 10.0 mi North - - N/A   Clear
4:55 PM 19.4 °F 5.0 °F 54% 30.36 in 10.0 mi North - - N/A   Clear
5:15 PM 19.4 °F 6.8 °F 58% 30.37 in 10.0 mi North - - N/A   Clear
5:35 PM 19.4 °F 6.8 °F 58% 30.36 in 10.0 mi North - - N/A   Clear
5:55 PM 19.4 °F 6.8 °F 58% 30.36 in 10.0 mi North - - N/A   Clear
6:15 PM 19.4 °F 6.8 °F 58% 30.35 in 10.0 mi North - - N/A   Clear
6:35 PM 17.6 °F 6.8 °F 63% 30.34 in 10.0 mi North - - N/A   Clear
6:55 PM 17.6 °F 6.8 °F 63% 30.34 in 10.0 mi North - - N/A   Clear
7:15 PM 15.8 °F 6.8 °F 68% 30.33 in 10.0 mi North - - N/A   Clear
7:35 PM 15.8 °F 5.0 °F 62% 30.34 in 10.0 mi North - - N/A   Clear
7:55 PM 15.8 °F 5.0 °F 62% 30.34 in 10.0 mi North - - N/A   Clear
8:15 PM 15.8 °F 5.0 °F 62% 30.34 in 10.0 mi North - - N/A   Clear
8:35 PM 14.0 °F 3.2 °F 62% 30.34 in 10.0 mi North - - N/A   Clear
8:55 PM 14.0 °F 3.2 °F 62% 30.34 in 10.0 mi North - - N/A   Clear
9:15 PM 14.0 °F 5.0 °F 67% 30.34 in 10.0 mi North - - N/A   Clear
9:35 PM 14.0 °F 5.0 °F 67% 30.34 in 10.0 mi North - - N/A   Clear
9:55 PM 14.0 °F 3.2 °F 62% 30.34 in 10.0 mi North - - N/A   Clear
10:15 PM 14.0 °F 5.0 °F 67% 30.34 in 10.0 mi North - - N/A   Clear
10:35 PM 14.0 °F 5.0 °F 67% 30.34 in 10.0 mi North - - N/A   Clear
10:55 PM 14.0 °F 5.0 °F 67% 30.34 in 10.0 mi North - - N/A   Clear
11:15 PM 14.0 °F 5.0 °F 67% 30.34 in 10.0 mi North - - N/A   Clear
11:35 PM 14.0 °F 5.0 °F 67% 30.33 in 10.0 mi North - - N/A   Clear
11:55 PM 12.2 °F 6.8 °F 79% 30.33 in 10.0 mi North - - N/A   Clear